Tracking 25709 objects as of 23-May-2022
HD Live streaming from Space Station
objects crossing your sky now

SL-8 DEB *

Track SL-8 DEB * now!
10-day predictions


NORAD ID: 14802
Int'l Code: 1977-059C
Perigee: 681.3 km
Apogee: 697.4 km
Inclination: 74.1 °
Period: 98.4 minutes
Semi major axis: 7060 km
RCS: 0.0066 m2 (small)
Launch date: July 1, 1977
Source: Commonwealth of Independent States (former USSR) (CIS)
Launch site: PLESETSK MISSILE AND SPACE COMPLEX (PKMTR)

Note: This is SATELLITE DEBRIS
aabbcc
Your satellite tracking list
Your tracking list is empty




NASA's NSSDC Master Catalog

Two Line Element Set (TLE):
1 14802U 77059C   22142.58559955  .00002721  00000-0  53148-3 0  9991
2 14802  74.0560 210.4738 0011411 342.8650 134.8499 14.63393274148902
Source of the keplerian elements: AFSPC